Погода в Актау

Казахстан     43°38′08″N   51°10′05″E
темп.,
°C
ветер,
м/с
пор.,
м/с
влажн.,
%
обл.,
%
осадки,
мм/ч
давл.,
гПа
погр.,
м
2 марта, вт
вт223:00+2с227666 0.0 102843
02:000с118517 0.0 102832
05:000ююв11859 0.0 102729
08:00+1ю128314 0.0 102833
11:00+5ююз346632 0.0 1029631
14:00+6юз566267 0.0 10281028
17:00+6юз676867 0.1 1026933
20:00+4з347757 0.1 102569
3 марта, ср
ср323:00+4юз457928 0.1 102653
02:00+4юз56830 0.0 102391
05:00+3юз55841 0.0 102266
08:00+3ююз45830 0.0 102048
11:00+6ююз57700 0.0 1020629
14:00+7юз55650 0.0 1019665
17:00+7юз326313 0.0 1017507
20:00+5сз468161 0.0 1017181
4 марта, чт
чт423:00+5сз467662 0.0 1018114
02:00+4зсз81383100 0.0 1019419
05:00+4зсз8127798 0.1 1021591
08:00+2сз91270100 0.1 10231094
11:00+3сз10135881 0.1 10261602
14:00+3сз9105254 0.0 10271304
17:00+3сз675427 0.0 1027966
20:00+2зсз22660 0.0 102785
5 марта, пт
пт523:00+1ю23680 0.0 102850
02:00+1ююв34690 0.0 102650
05:00+1юв45760 0.0 102580
08:000вюв46760 0.0 1024115
11:00+3юв575739 0.0 1024379
14:00+7ююв4542100 0.0 1023688
17:00+7ююз2246100 0.0 1023745
20:00+4зюз3369100 0.0 102347
6 марта, сб
сб623:00+3зсз127677 0.0 102425
02:00+1св11800 0.0 102323
05:00+2вюв22730 0.0 102324
08:00+2юв33680 0.0 102226
11:00+5ююв57510 0.0 1023372
14:00+9ю78410 0.0 1021798
17:00+9ю79530 0.0 1019767
20:00+6ююв58700 0.0 1018183